Temp
17 17 18 18 18 18 18 18 18 18 19 19 19 19 18 18 18 18 18 17 17 17 17 17 17 18 18 18 18 17 17 17 17 17 17 16 17 17 16 16 16 16 16 16 16 16 16 16 16 16 16 16 17 17 17 17 17 18 18 18 18 17 17 17 18 18 18 18 19 19 19 18 18 18 18 18 18 18 18 18 18 18 18 18 19
18 18 18 18 18 18 18 18 18 18 19 19 19 19 18 18 18 18 18 17 17 17 17 17 17 18 18 17 17 17 17 17 17 17 17 17 17 18 17 16 17 17 17 16 16 16 16 16 16 16 16 16 16 17 17 17 17 18 18 18 18 18 17 17 17 18 18 18 18 19 18 18 18 18 17 17 18 17 18 18 18 18 18 18 18
18 18 18 18 18 18 18 18 18 19 19 19 19 19 18 18 18 18 18 18 18 18 18 17 17 17 17 17 17 17 17 17 17 17 17 17 17 17 17 17 17 17 17 17 16 16 16 16 16 16 16 16 16 16 17 17 17 18 18 18 18 18 17 17 17 17 17 17 18 18 18 18 18 18 17 17 17 18 18 18 18 18 18 18 18
18 18 18 18 18 18 18 18 18 19 18 18 19 19 18 18 18 18 18 18 18 17 17 17 17 17 17 17 17 17 17 17 17 17 17 17 17 17 17 17 17 17 17 17 17 16 16 16 16 16 16 16 16 16 17 17 17 17 17 17 18 17 17 17 17 17 17 17 18 18 18 18 17 18 18 17 17 18 18 18 18 18 18 18 18
18 18 18 18 18 18 18 18 18 18 18 18 18 18 18 18 18 18 18 18 18 17 17 17 17 17 18 18 17 17 17 17 17 17 17 17 17 17 17 17 18 18 17 17 17 16 16 16 16 16 16 16 16 16 17 17 17 17 17 17 17 17 17 17 17 17 18 18 18 18 18 18 18 18 17 17 17 18 18 18 18 18 18 18 18
19 19 19 19 18 18 18 18 18 18 18 18 18 18 18 18 18 18 18 18 17 18 17 17 18 18 18 18 18 17 17 17 17 17 17 17 17 17 18 18 18 18 18 17 17 17 16 16 16 16 15 15 16 16 16 16 16 16 16 16 16 17 17 17 17 17 17 18 18 18 18 18 18 18 18 17 17 18 17 18 18 18 18 18 19
19 19 19 19 18 18 18 18 18 18 18 18 18 18 18 18 18 18 18 18 18 18 18 18 18 18 18 18 18 17 17 17 17 17 17 17 17 18 18 18 18 18 18 18 17 17 16 16 16 15 15 15 15 15 16 15 16 16 16 15 16 16 17 17 17 17 17 18 18 18 18 19 19 19 18 17 17 17 17 18 18 18 18 18 18
19 19 19 19 18 18 18 18 18 18 18 18 18 18 18 18 18 18 18 18 18 18 18 18 19 18 18 18 18 17 17 17 17 18 17 17 18 17 17 18 18 18 18 18 17 16 16 16 16 15 14 14 13 14 14 14 15 16 15 15 15 16 16 16 17 16 16 17 18 18 18 18 18 18 17 17 17 17 17 17 18 18 17 17 17
19 19 19 18 18 19 18 18 18 18 18 17 17 18 18 18 18 18 18 18 18 18 18 18 19 18 18 18 18 17 18 18 18 17 17 17 17 17 17 17 18 17 17 18 17 16 16 16 16 14 13 13 13 13 13 13 14 15 15 15 15 15 15 16 16 16 16 17 17 17 18 18 17 17 17 17 17 17 17 17 17 17 17 17 17
19 19 19 18 18 18 18 18 18 17 17 17 17 18 18 18 18 18 18 18 18 18 17 18 18 18 18 18 18 18 19 19 17 16 17 17 16 16 17 17 17 17 17 18 17 17 16 16 15 14 13 13 13 13 13 13 13 14 14 14 14 15 15 15 16 16 16 17 17 17 17 17 17 17 16 16 16 17 17 17 17 17 17 17 17
19 19 18 18 18 18 18 18 18 17 17 17 17 17 18 18 18 18 18 18 17 17 17 17 18 18 18 18 19 19 19 18 17 17 16 16 16 16 17 17 18 18 18 18 18 17 17 16 16 15 14 14 14 13 13 13 13 14 14 14 14 14 14 15 15 16 16 16 17 17 17 17 16 16 16 16 16 16 16 16 17 17 16 16 17
19 19 18 18 17 17 18 18 17 17 17 17 17 17 17 17 17 17 18 17 17 17 17 17 17 17 18 18 18 19 19 18 17 17 17 17 16 16 17 17 18 18 18 18 18 17 17 16 16 16 15 14 14 14 14 14 14 14 14 14 14 14 14 14 14 15 15 16 16 16 16 16 16 16 16 15 15 15 16 16 16 16 16 16 16
19 18 18 18 17 17 18 17 17 17 17 17 17 17 17 17 17 17 18 18 17 17 17 17 17 17 17 17 18 18 18 17 17 17 17 17 17 16 16 17 17 17 17 17 17 17 16 16 16 16 16 14 14 15 14 14 14 14 15 15 15 14 14 14 14 15 15 15 15 15 15 15 15 15 15 15 15 15 16 16 16 16 16 16 16
19 18 18 18 17 17 17 17 17 17 17 17 17 17 17 17 18 18 18 18 17 17 17 17 17 17 17 17 17 18 18 17 17 16 16 17 17 16 16 17 17 18 17 17 17 16 16 16 16 16 16 15 15 15 14 14 15 15 15 16 16 16 15 15 15 15 15 15 15 15 15 15 15 15 14 14 14 15 15 15 15 15 16 16 16
19 18 18 18 17 17 17 17 17 17 17 17 17 17 18 18 18 18 18 18 18 17 17 17 17 17 17 17 18 18 18 17 16 16 16 16 16 16 16 17 17 18 18 17 17 16 16 16 16 16 16 15 15 15 14 14 15 15 15 16 17 17 16 15 15 15 15 15 15 15 15 15 14 14 14 14 14 14 15 15 15 16 16 16 17
18 18 18 18 17 17 17 17 17 17 17 17 17 17 17 18 18 18 18 18 18 18 17 17 18 18 17 17 17 18 18 17 17 16 16 16 16 16 17 17 17 17 18 17 16 16 16 16 16 16 16 15 15 14 14 14 14 15 15 16 17 17 17 16 15 15 15 15 15 14 14 14 14 14 14 14 14 14 14 15 16 16 16 17 17
18 18 18 17 17 17 17 18 18 18 17 17 17 17 17 17 17 18 18 18 19 18 18 18 18 18 18 18 17 18 18 17 17 16 16 16 16 16 17 17 17 18 18 17 17 16 16 16 15 16 16 16 15 14 14 14 14 15 16 16 16 17 18 17 16 16 15 15 15 14 14 14 14 14 14 14 14 14 15 16 16 17 17 17 18
18 18 18 17 17 17 17 17 17 17 17 17 17 17 17 17 17 18 18 18 18 18 18 18 18 18 18 18 17 17 18 17 17 17 17 16 16 17 17 17 18 18 18 18 17 17 16 16 15 15 16 16 15 14 14 14 14 15 15 16 16 17 17 17 17 16 15 15 15 15 15 15 14 14 14 14 14 14 15 15 16 17 17 17 17
18 17 17 17 17 17 17 17 17 17 17 17 17 17 17 17 18 18 18 18 18 18 18 18 18 18 18 17 17 17 17 17 17 17 17 17 17 17 17 18 18 18 18 18 18 17 17 16 16 15 16 16 15 14 14 14 14 15 15 15 16 17 17 16 16 15 15 15 16 16 16 16 15 15 15 15 15 15 15 15 16 16 16 16 17
17 17 17 17 17 17 17 17 17 17 17 17 17 17 17 17 18 18 17 18 18 18 18 18 18 18 18 18 18 17 17 17 17 17 17 17 17 17 17 18 18 18 18 18 18 18 18 17 17 16 16 16 15 15 14 14 14 14 15 15 16 16 16 15 15 15 15 15 16 17 17 16 15 15 15 15 16 16 15 16 16 16 16 16 16
17 17 17 17 17 17 17 17 17 17 17 17 17 17 17 17 17 18 17 18 18 18 18 18 18 18 18 18 18 18 18 18 17 17 17 17 17 17 17 18 18 18 18 18 18 19 18 18 18 17 16 16 16 15 15 15 14 14 14 15 15 15 15 14 14 14 15 16 16 17 17 16 16 16 16 16 16 16 16 16 16 15 15 15 15
17 17 17 17 17 17 17 17 17 17 17 17 17 17 17 17 17 17 18 18 18 17 18 18 18 18 18 18 18 18 18 18 17 17 17 17 17 17 17 17 18 18 18 18 19 19 18 18 18 17 16 16 16 15 15 15 14 14 14 14 15 15 14 14 14 15 15 16 17 17 17 17 17 16 16 16 16 16 15 15 15 15 15 15 15
17 17 17 17 17 17 17 17 17 17 17 17 17 17 17 17 17 17 18 18 17 17 18 18 18 18 18 18 18 18 18 18 17 17 17 17 17 17 17 17 17 17 18 18 18 18 18 18 17 17 16 16 16 15 15 15 15 15 15 15 15 15 14 14 15 15 16 16 17 17 17 17 17 16 16 16 16 15 15 15 15 15 15 15 15
17 17 17 17 17 17 17 17 17 18 17 17 17 17 17 17 17 17 17 17 17 18 18 18 18 18 18 18 18 18 18 18 18 17 17 17 17 17 17 17 17 17 17 18 18 18 18 18 17 17 17 16 16 16 15 15 15 15 15 15 15 14 14 14 15 16 16 16 17 17 18 18 17 16 16 15 15 15 14 15 15 15 15 15 15
18 17 17 17 17 17 18 18 18 18 18 17 17 17 17 17 18 18 18 17 17 18 18 18 18 18 18 18 18 18 18 18 18 18 17 17 17 17 17 17 17 17 17 17 17 17 17 17 17 17 17 17 16 16 16 16 16 15 15 15 15 14 15 15 16 16 16 16 17 18 18 18 17 17 15 15 14 15 15 15 15 15 15 15 15
18 18 18 18 18 18 18 18 18 18 17 17 17 17 18 18 18 18 18 18 18 18 18 18 19 19 19 19 18 18 19 19 18 18 18 18 18 18 18 17 17 18 17 17 17 17 17 17 17 17 17 17 17 16 16 16 16 16 16 15 14 15 15 16 16 16 16 17 17 18 18 17 17 16 16 15 15 15 15 15 15 15 16 16 16
18 18 18 18 18 18 18 18 18 18 17 18 18 18 18 18 18 18 18 18 18 18 18 18 19 19 19 19 19 19 19 19 19 19 19 19 18 18 18 18 18 17 17 17 17 17 17 17 17 17 17 17 17 17 16 16 16 16 16 16 15 16 16 17 16 16 16 16 17 17 18 17 16 16 16 16 16 16 15 15 15 15 15 16 16
18 19 19 19 19 19 18 18 18 18 18 18 18 18 18 18 18 18 18 18 18 18 18 19 19 19 19 19 19 19 19 19 19 19 19 19 18 18 19 18 18 18 18 18 17 17 17 17 17 17 17 17 17 17 17 17 17 17 17 17 17 17 17 17 16 16 16 16 16 16 16 16 17 17 17 17 17 16 15 15 15 15 15 15 16
19 20 20 20 19 19 19 18 18 18 18 18 18 18 18 18 18 19 18 18 18 18 18 18 18 19 19 19 19 19 19 19 19 19 19 18 18 18 18 18 18 18 17 17 17 17 17 17 18 18 18 18 18 18 18 18 18 18 18 18 18 18 17 17 17 17 16 16 16 16 16 17 17 17 17 18 17 16 15 15 15 15 15 15 16
19 20 20 20 19 19 19 19 18 18 18 18 18 18 18 18 18 18 18 18 18 17 17 18 18 18 18 18 19 19 19 19 19 18 18 18 18 18 18 18 18 17 17 17 17 16 16 17 18 19 19 19 19 19 19 19 19 19 19 19 18 18 18 18 18 18 17 17 17 17 17 17 17 17 17 18 17 16 16 15 15 15 15 16 17
20 20 20 19 19 19 19 19 19 19 19 19 19 19 18 18 18 17 17 17 17 17 18 18 18 18 18 18 18 18 18 18 18 18 18 18 18 18 18 18 18 17 17 17 16 16 17 18 19 19 19 19 20 20 20 20 20 20 19 19 19 19 18 18 18 18 18 18 17 17 17 17 17 17 17 18 17 16 16 16 16 16 16 16 17
20 20 20 20 19 19 19 19 19 19 19 19 19 19 19 19 18 18 18 18 18 18 18 18 18 18 18 18 18 18 18 18 18 18 18 18 18 18 18 18 18 17 17 17 16 16 18 18 19 19 19 19 20 20 20 20 20 20 19 19 19 19 19 18 18 18 18 18 18 17 17 17 17 17 17 17 17 17 16 16 16 16 16 16 17
20 20 20 19 19 19 19 19 19 19 19 19 19 19 19 19 19 19 19 19 19 19 19 19 19 19 19 19 18 18 18 18 18 18 18 18 18 18 18 18 18 17 17 17 16 17 18 19 19 19 20 19 20 20 20 20 20 20 19 19 19 19 19 19 18 17 17 18 18 18 18 17 17 17 17 17 17 17 17 16 16 16 16 16 17
20 20 20 19 19 19 19 19 19 19 19 19 19 19 19 19 19 19 19 19 19 19 19 19 19 19 19 19 19 19 19 19 19 19 19 18 18 18 18 18 18 18 17 17 16 17 18 19 19 19 20 20 20 20 20 20 19 19 19 19 19 19 19 18 18 17 17 18 17 18 18 18 18 17 17 17 17 17 17 17 16 16 16 16 17
20 20 19 19 19 19 19 19 19 19 19 19 19 19 19 19 19 19 19 20 20 20 20 20 20 20 19 19 19 19 19 19 19 19 19 19 18 18 17 17 17 18 18 18 17 17 18 19 20 20 20 20 20 20 20 20 19 19 19 19 19 19 19 18 18 18 17 18 18 18 18 18 18 18 17 17 17 17 17 17 17 17 17 17 17
19 20 19 19 19 19 19 19 19 19 19 19 19 19 19 19 19 20 20 20 20 20 20 20 21 20 20 20 20 20 20 20 20 20 19 19 18 18 17 17 18 19 19 19 19 18 18 19 19 20 20 20 20 20 20 20 20 19 19 19 19 19 19 19 18 18 18 18 18 18 18 18 18 18 17 17 17 17 17 17 17 17 17 16 16
19 20 19 19 19 19 19 19 19 19 19 19 19 19 19 20 20 20 20 21 21 20 20 20 21 21 20 20 20 20 20 20 20 19 19 19 18 18 17 17 18 19 20 20 20 20 20 20 20 20 20 20 20 20 20 20 20 19 19 19 19 19 19 19 19 18 18 18 18 18 18 18 18 17 17 17 17 17 17 17 17 17 16 16 16
19 19 20 19 19 19 19 19 19 19 19 19 19 19 20 20 20 20 20 20 20 20 20 21 21 21 21 21 21 21 21 20 19 19 19 19 18 18 18 17 18 19 19 20 20 20 20 20 20 20 20 20 20 20 20 20 20 20 19 19 18 18 18 18 18 18 18 18 18 18 18 18 18 18 17 17 17 17 17 17 17 17 17 16 16
19 19 19 19 19 19 19 19 19 19 19 19 20 20 20 20 20 20 20 20 21 21 21 21 21 21 22 21 21 21 21 20 20 20 20 20 20 19 19 18 18 19 19 20 20 20 20 20 20 20 20 20 20 20 20 20 20 20 19 19 19 19 18 18 18 18 18 18 18 18 18 18 18 18 18 18 18 18 17 17 17 17 17 17 17
20 19 19 18 18 19 19 19 20 20 20 20 20 20 20 20 20 20 21 21 21 21 21 21 21 22 22 21 21 21 21 21 21 21 21 21 21 20 20 20 20 20 20 20 20 20 20 20 20 20 19 19 19 19 19 19 19 19 19 19 19 19 19 19 19 19 19 18 18 18 18 18 18 18 18 18 18 18 18 17 17 17 17 17 17
20 20 19 18 18 19 19 19 19 20 20 20 20 20 20 20 21 21 21 21 21 21 21 22 22 22 21 21 21 21 20 20 21 21 21 21 21 21 20 21 21 20 20 20 20 20 20 20 19 19 19 19 18 18 18 18 18 18 18 18 19 19 19 19 19 19 19 19 19 19 19 19 18 18 18 18 18 18 18 18 17 17 17 17 17
20 20 20 19 18 19 19 20 20 20 20 20 20 20 20 20 20 20 20 21 21 21 21 22 22 22 22 21 21 20 20 20 20 20 21 21 21 21 21 20 20 20 20 20 20 19 19 19 19 18 18 18 18 17 17 17 17 17 18 18 18 18 19 19 19 19 19 19 19 19 19 19 18 18 18 18 18 18 18 18 18 17 17 17 17
20 20 20 20 19 19 20 20 20 20 20 20 20 20 20 20 20 20 21 21 21 21 21 22 22 22 22 21 21 21 20 20 20 20 20 20 20 20 20 20 20 20 20 19 19 19 19 19 18 18 18 18 18 18 17 17 17 17 17 17 18 18 18 18 19 19 19 19 19 19 19 19 19 18 18 18 18 18 18 18 18 17 17 17 17
20 20 20 20 20 20 20 20 20 20 21 20 20 20 20 20 20 21 21 21 21 22 22 22 22 22 22 22 22 21 21 21 21 21 20 20 20 20 20 20 20 20 19 19 19 19 18 18 18 18 17 17 17 17 16 16 16 16 16 16 17 17 17 17 17 18 18 18 18 19 19 19 19 19 19 18 18 18 18 18 18 17 17 17 17
20 20 20 20 21 20 20 20 20 20 20 20 20 21 21 21 21 21 21 21 22 22 22 22 22 22 22 22 22 22 21 21 21 21 20 20 20 20 20 20 20 19 19 19 19 18 18 18 17 17 17 17 17 16 15 15 15 15 15 15 16 16 16 16 16 17 17 17 18 18 18 18 18 18 18 19 19 18 18 18 18 18 17 17 17
21 21 21 21 21 21 21 21 21 20 20 21 21 21 22 22 22 22 22 22 22 22 22 22 22 22 22 22 21 21 21 21 21 21 21 20 20 20 20 20 19 19 19 19 19 18 18 17 17 17 16 16 16 16 15 15 14 14 14 15 15 15 15 15 16 16 16 16 17 17 17 17 17 17 18 18 19 19 18 18 18 18 17 17 17
21 21 21 21 21 21 21 21 21 21 21 21 21 22 22 22 22 22 22 22 22 22 22 22 22 21 21 21 21 21 21 20 20 20 20 19 19 19 18 18 18 18 18 18 18 18 18 17 17 16 16 16 16 16 15 15 14 14 14 14 14 14 14 14 14 14 15 15 15 16 16 16 17 17 17 17 17 18 18 18 18 18 18 17 17
21 21 21 21 21 21 21 21 21 21 21 21 22 22 22 22 22 22 22 22 22 22 21 21 21 22 21 21 21 21 20 20 20 20 19 18 18 17 17 17 17 17 17 17 17 17 17 16 16 15 15 15 15 15 15 15 15 14 13 13 13 13 13 13 13 13 13 14 14 15 15 15 16 16 17 17 16 17 18 18 18 18 18 18 17
21 21 22 22 22 22 22 22 22 22 22 22 22 22 22 22 22 22 22 22 21 21 19 18 19 20 21 20 20 20 19 19 19 19 17 17 16 16 16 16 16 16 16 15 15 15 15 15 15 15 15 15 15 15 15 15 14 14 14 13 13 13 12 12 12 12 13 13 13 13 14 15 15 16 16 16 16 17 17 18 18 18 18 18 18
21 22 22 22 22 22 22 22 22 22 22 22 22 22 22 22 22 21 21 20 19 19 18 17 16 18 20 20 19 18 18 17 17 17 16 16 16 16 16 16 16 16 15 15 15 15 15 15 15 15 15 15 15 15 15 14 14 13 13 13 12 12 12 12 11 11 12 12 13 13 13 13 14 15 15 16 16 17 17 17 17 18 18 18 18
22 22 22 22 22 22 22 22 22 22 22 22 22 22 22 21 19 19 19 18 18 17 18 17 18 18 19 18 17 17 17 16 16 16 16 16 16 16 15 15 15 15 15 15 15 15 14 14 14 14 15 14 14 14 14 13 13 13 13 12 12 12 12 11 11 11 11 11 12 12 12 12 13 14 14 15 15 16 16 17 17 17 17 18 17
Height
837 839 841 844 847 850 852 853 855 857 858 859 860 861 863 864 865 865 866 866 867 867 867 867 867 867 866 866 866 866 866 865 865 864 864 864 863 862 862 862 861 860 859 859 857 856 855 853 852 851 849 848 846 845 844 844 843 841 841 840 839 839 839 837 835 832 830 829 827 825 824 824 823 821 820 818 816 814 812 810 808 806 804 802 800
838 840 842 845 848 850 852 854 856 858 858 859 860 861 863 864 865 865 866 866 867 867 868 868 868 867 867 867 867 867 866 866 866 865 865 864 863 863 862 862 861 861 860 859 858 857 856 854 853 851 850 848 847 846 845 844 843 842 841 840 839 839 839 838 837 834 831 830 828 826 824 824 823 821 820 818 816 814 811 809 807 805 803 801 800
839 841 843 845 848 850 852 854 856 858 859 860 861 862 863 864 865 865 865 866 867 868 868 868 868 868 868 867 867 867 867 866 866 866 865 865 864 863 863 862 862 861 860 859 859 858 856 855 853 852 851 849 848 847 846 845 844 842 841 841 839 839 839 839 838 835 833 831 829 826 825 824 823 821 820 818 816 814 811 809 807 805 803 801 799
839 841 843 845 848 850 852 854 856 858 859 860 861 863 864 865 865 865 866 867 867 868 869 869 869 868 868 868 867 867 867 867 866 866 866 865 864 864 863 863 862 861 860 860 859 858 857 855 854 853 851 850 849 847 846 845 844 843 842 841 840 840 840 839 838 836 833 831 829 827 826 824 823 821 820 818 816 814 811 809 807 804 802 800 798
839 841 843 845 848 850 852 854 856 857 859 861 862 863 864 865 865 866 866 867 868 869 869 869 869 868 868 868 868 867 867 867 867 866 866 865 865 864 864 863 862 861 861 860 859 858 857 856 854 853 852 850 849 848 846 845 844 844 843 842 841 841 840 839 838 835 833 831 829 827 826 824 822 821 820 818 816 813 812 809 806 804 802 800 798
839 841 844 846 847 850 852 854 856 857 859 861 862 864 865 865 865 866 867 867 868 869 869 869 869 868 868 868 868 868 867 867 867 867 866 866 865 864 863 862 861 860 860 860 859 858 857 856 855 854 853 851 850 849 848 846 845 845 844 843 842 841 840 839 837 835 833 831 828 827 825 824 822 820 820 819 816 814 812 809 806 804 802 800 797
839 841 843 845 848 849 852 854 855 857 859 860 862 864 865 865 866 866 867 868 868 868 869 869 868 868 868 868 868 868 867 867 867 867 866 865 864 864 863 862 861 860 859 859 859 858 857 856 855 854 853 852 851 850 848 847 846 845 845 844 843 842 840 839 837 836 834 831 829 827 825 823 821 820 819 819 817 815 813 810 807 805 803 800 798
839 841 843 845 847 849 851 853 855 857 858 860 862 863 864 865 866 867 868 868 868 868 868 868 868 868 868 868 868 867 867 867 866 866 865 865 864 864 863 862 861 860 859 858 858 859 858 857 856 855 853 852 852 851 850 849 847 846 846 845 844 843 841 840 838 837 835 832 830 828 826 824 822 821 820 818 817 816 814 811 808 806 804 801 799
838 841 843 845 847 849 851 853 855 857 858 860 862 863 864 866 866 867 868 868 868 868 868 868 867 868 868 868 867 867 866 865 865 866 865 865 864 863 863 862 861 861 860 858 858 858 858 857 856 855 853 852 852 851 850 850 848 847 847 846 845 844 842 841 839 837 836 833 831 829 827 825 824 824 822 820 818 817 815 813 810 807 805 802 799
838 841 843 845 847 848 851 853 854 856 858 860 862 863 864 866 866 867 868 868 868 868 869 868 867 867 867 867 866 865 864 864 864 865 865 864 864 863 862 862 861 861 860 859 858 858 857 857 856 855 854 853 852 852 851 850 849 849 848 847 846 845 843 842 839 838 836 834 832 830 828 827 826 825 824 822 820 818 816 814 811 808 806 803 799
838 841 842 844 846 848 850 852 854 856 858 860 862 863 865 866 866 867 868 868 868 868 868 868 867 867 866 866 865 864 863 864 864 865 864 864 863 863 862 861 860 860 859 858 858 857 857 857 856 855 854 854 853 852 851 851 850 849 849 847 847 846 844 843 840 839 837 835 833 832 830 828 828 826 824 823 822 819 817 815 813 810 808 805 802
838 840 842 844 846 848 850 852 854 857 859 860 862 863 865 865 866 867 867 868 868 867 867 868 867 867 866 866 865 864 863 863 863 864 864 863 863 862 861 861 859 859 859 858 858 857 857 857 856 855 855 854 853 852 852 851 850 850 849 847 847 846 845 844 842 840 838 836 835 833 831 830 829 827 826 824 823 821 818 816 814 812 810 808 804
839 840 842 844 846 848 850 852 854 857 859 861 862 863 864 865 866 867 867 867 867 867 867 867 867 866 866 865 865 864 863 863 863 863 862 862 862 861 861 860 859 859 858 858 858 857 857 857 856 855 855 854 853 853 852 851 850 849 848 847 846 845 844 843 842 841 839 838 836 834 833 832 830 828 827 826 824 821 819 817 815 813 811 808 805
839 840 842 845 846 848 851 852 855 857 858 860 862 863 864 865 865 866 866 867 867 866 866 866 866 866 865 864 864 863 862 862 862 862 861 861 861 860 860 859 858 858 858 858 858 857 857 856 855 855 855 854 853 853 852 851 850 848 847 846 844 844 843 842 842 841 839 838 837 835 833 832 830 829 828 826 824 822 819 817 815 813 810 808 805
839 841 843 845 847 849 851 853 855 857 859 860 861 862 863 864 865 865 865 866 865 865 866 865 865 865 864 863 863 862 862 861 861 861 860 860 860 859 859 858 858 857 857 857 857 857 856 856 855 854 854 853 853 852 851 851 849 848 847 845 843 841 841 841 841 840 839 838 836 835 833 832 831 829 827 826 824 822 820 818 815 813 810 807 804
839 841 843 845 847 849 851 853 855 856 858 860 861 862 863 864 864 865 865 865 864 864 865 865 864 864 863 862 862 861 861 861 860 860 859 859 859 858 858 858 857 856 856 856 856 856 856 855 854 854 853 853 852 851 850 850 849 848 846 844 842 840 838 839 838 837 837 836 835 834 832 831 830 828 827 826 824 822 820 817 814 812 810 806 803
839 841 843 844 846 849 851 852 854 856 858 859 860 862 863 864 864 864 865 864 863 863 864 863 863 863 862 862 861 861 860 860 859 859 858 858 858 857 857 857 856 855 855 855 855 855 855 854 853 853 852 851 851 850 849 849 848 848 846 844 843 840 837 836 835 834 834 833 832 831 829 829 828 827 826 825 823 821 819 816 813 811 809 806 803
838 840 842 844 846 849 850 852 854 855 857 858 860 861 862 863 863 863 864 864 863 863 863 862 862 862 861 861 860 860 860 859 858 858 857 857 857 856 857 856 855 854 854 854 854 854 853 852 851 852 851 850 850 849 848 848 847 847 845 844 842 839 837 837 836 834 834 832 830 829 828 827 826 825 824 823 822 821 819 816 813 811 810 808 805
837 839 842 844 846 848 850 852 853 855 856 858 859 860 861 862 862 863 863 863 862 862 862 861 861 861 860 860 859 859 858 858 857 857 856 856 856 855 856 855 854 853 853 853 853 852 852 851 850 850 850 849 849 848 847 847 846 846 845 843 841 838 837 837 836 835 834 832 830 829 827 826 825 824 823 822 821 820 818 816 814 812 811 809 807
836 839 842 843 846 847 849 852 853 854 856 857 858 859 860 861 861 862 862 862 861 861 861 860 860 860 860 859 858 858 857 856 856 855 855 855 854 854 855 854 853 853 852 852 852 851 850 850 848 848 848 847 847 846 846 845 845 844 844 842 840 838 837 837 836 835 834 832 829 827 825 825 824 822 821 820 819 818 817 816 814 813 812 810 808
836 839 842 843 845 847 848 851 852 854 855 856 857 858 859 860 861 861 861 861 860 860 860 860 859 859 858 858 857 857 856 855 855 854 853 854 853 853 853 853 852 852 851 851 850 849 848 848 847 847 846 846 845 844 844 843 843 843 842 841 839 838 836 835 834 833 832 830 828 825 824 823 823 821 820 819 818 817 816 815 814 813 812 810 809
836 839 841 843 844 846 848 850 852 853 854 855 856 857 858 859 860 860 860 860 859 859 859 858 858 858 857 856 856 855 855 854 853 853 852 852 852 852 852 852 852 851 851 850 849 848 847 847 847 846 845 844 843 843 842 842 841 840 839 838 837 836 835 834 833 832 831 829 827 825 823 822 821 820 819 818 817 816 815 814 813 812 811 810 809
837 838 840 842 844 846 848 850 851 852 853 854 856 857 857 858 859 859 859 858 858 858 857 857 857 856 855 855 854 854 853 853 852 851 851 851 851 851 850 850 850 850 850 849 848 847 846 846 845 844 843 842 842 841 840 839 838 838 837 836 835 834 833 833 831 830 829 828 826 824 822 820 820 820 819 818 817 816 815 814 813 811 810 809 808
836 838 840 842 843 845 847 849 851 851 852 854 855 856 856 857 857 857 857 857 857 857 856 856 855 855 854 853 853 852 852 851 850 850 849 849 849 849 849 849 848 848 848 847 847 846 845 844 844 842 841 840 840 839 838 837 836 835 834 833 833 832 831 831 829 828 828 827 825 823 821 819 819 820 819 818 817 816 814 813 812 810 809 808 807
835 837 839 841 843 845 846 848 850 850 852 853 854 854 855 855 855 856 856 856 856 855 854 854 853 853 852 852 851 851 850 849 849 848 848 847 847 847 847 847 846 846 846 845 845 844 843 842 841 840 839 838 837 836 835 834 832 832 831 831 830 830 829 828 827 826 826 824 822 821 819 818 818 818 819 818 817 815 814 812 811 809 808 807 805
834 836 838 840 842 844 845 847 848 849 851 852 852 853 853 853 853 854 854 854 854 853 853 852 851 851 851 850 850 849 848 848 847 847 846 846 845 845 844 844 844 844 843 843 842 841 840 839 839 838 837 836 835 833 832 831 830 829 828 827 827 827 826 826 825 824 823 822 821 819 818 818 818 818 817 817 816 814 813 812 810 808 807 805 804
833 835 837 839 841 842 844 845 846 848 849 850 850 851 851 851 851 852 852 852 852 852 851 850 849 849 849 849 848 847 846 846 845 845 845 844 843 843 842 842 842 841 841 840 839 838 838 837 835 834 833 832 831 830 829 828 827 826 825 824 824 824 823 823 822 822 821 820 819 817 817 817 817 816 815 814 813 813 812 811 809 808 806 805 803
832 834 835 837 839 840 842 844 845 846 847 848 848 848 849 849 849 849 849 850 850 850 849 849 848 848 847 847 846 845 845 844 843 843 843 842 842 842 841 840 840 839 839 838 837 836 836 834 833 832 831 829 828 827 826 825 824 823 822 822 821 821 820 820 819 819 818 818 818 817 816 816 815 814 813 812 811 811 811 810 809 808 806 804 802
830 832 833 835 837 839 840 842 843 844 845 846 846 846 846 847 847 847 847 848 848 848 848 847 847 847 846 845 845 844 843 842 841 841 841 841 841 840 839 839 838 837 837 836 835 835 834 832 831 829 828 827 825 824 823 821 820 820 819 819 818 818 817 817 816 816 816 816 815 815 815 814 813 813 811 810 809 810 810 810 809 808 806 804 801
829 831 832 834 836 837 839 840 841 842 843 843 844 845 844 845 845 845 846 846 846 846 846 846 845 845 844 844 843 842 841 840 839 839 838 838 838 837 836 836 836 835 835 834 833 832 831 829 828 826 825 824 822 820 819 818 817 816 816 815 815 815 814 814 813 813 813 813 813 813 812 812 811 811 810 808 808 809 809 808 808 807 805 803 801
828 830 832 833 834 836 837 838 839 840 841 841 842 842 842 843 843 843 844 844 844 844 844 843 843 842 842 841 840 839 838 837 836 836 835 835 835 834 834 833 833 832 832 831 830 830 828 826 824 822 821 820 818 817 816 814 813 813 812 812 812 811 811 811 811 811 810 810 810 810 809 809 809 809 809 807 807 808 808 806 806 805 804 802 800
827 829 831 832 833 835 836 836 837 838 839 840 840 841 841 841 841 841 841 841 841 841 841 840 840 839 839 838 836 835 835 834 833 833 832 832 832 831 831 830 830 829 829 828 827 826 825 823 821 819 818 816 815 814 813 811 810 810 809 809 808 808 808 808 808 808 808 807 807 807 807 807 807 807 807 806 806 806 806 805 804 803 802 801 800
826 828 829 831 833 834 835 835 836 837 838 839 839 839 840 839 839 839 839 839 839 838 838 837 837 836 835 835 833 832 832 831 831 830 830 829 829 828 828 827 826 826 825 824 823 822 821 819 817 816 814 813 811 811 810 808 807 807 806 806 805 805 805 805 805 805 805 805 805 804 804 804 804 804 805 804 803 803 804 803 803 802 801 800 799
825 827 828 829 831 833 833 834 835 836 837 838 838 838 838 838 837 837 837 836 836 836 835 834 833 833 832 831 830 829 829 828 828 827 827 826 826 825 824 823 823 822 821 820 819 818 817 815 813 812 811 810 808 807 806 806 805 804 803 802 802 802 802 802 802 802 802 802 802 802 801 801 801 801 802 802 801 801 801 801 801 800 800 799 798
825 826 827 829 830 831 832 833 834 835 836 836 836 836 837 836 836 836 835 835 834 833 831 830 830 829 829 828 827 827 826 825 825 824 824 823 823 822 821 820 819 818 817 815 814 813 812 811 809 808 807 806 805 804 803 802 801 800 799 799 799 799 799 799 799 799 798 799 799 799 799 799 799 799 799 799 799 799 799 799 799 798 798 798 797
824 826 827 828 829 830 831 832 833 834 834 835 835 835 835 835 835 834 833 832 831 830 829 828 827 826 826 825 824 823 823 822 821 821 820 820 819 818 817 816 815 814 812 811 809 808 808 806 805 804 803 802 801 800 799 798 797 796 796 795 795 795 795 796 796 796 795 795 796 796 796 796 796 796 796 796 796 797 797 797 797 797 797 797 796
824 825 825 827 828 829 830 831 831 832 833 833 834 834 833 833 833 831 830 829 828 827 827 826 824 824 823 822 821 820 819 818 818 817 816 815 815 814 813 812 811 810 808 806 805 804 803 802 801 800 799 797 796 796 795 794 793 793 792 792 791 791 791 792 792 792 792 792 793 793 794 794 794 794 794 794 793 794 794 794 794 794 795 796 796
823 824 825 826 827 828 829 830 830 831 832 832 832 832 831 831 830 829 828 827 826 826 824 823 822 821 820 819 818 817 816 815 814 813 812 811 810 809 808 807 807 805 804 802 801 800 799 798 797 796 795 793 792 792 791 790 789 789 788 788 788 787 787 788 788 789 789 789 789 790 791 791 791 791 791 791 791 791 791 792 792 792 792 793 794
822 823 824 825 826 827 828 828 829 830 830 830 830 829 829 828 827 827 826 825 824 823 821 820 819 818 817 816 815 814 813 812 811 810 808 807 806 805 804 803 802 801 800 798 797 796 795 794 793 792 791 790 788 788 787 786 786 785 785 784 784 784 784 784 784 784 785 785 785 786 787 787 788 788 788 788 789 789 789 789 789 790 790 790 790
820 821 823 824 826 827 827 827 828 828 828 828 827 827 826 826 825 824 823 822 821 819 818 817 816 814 814 813 812 812 811 809 807 806 805 804 803 802 801 799 798 797 795 794 793 792 791 790 789 788 787 786 785 784 783 783 783 782 781 781 780 780 780 780 780 780 780 780 780 781 782 783 784 785 785 785 785 786 786 787 787 787 788 788 788
818 819 821 822 824 825 825 826 826 826 826 826 825 824 824 823 822 822 821 819 818 817 815 814 813 812 811 810 809 809 808 806 804 803 801 799 798 797 796 795 794 792 791 790 788 787 786 785 784 784 783 782 780 779 779 780 780 780 778 777 777 776 776 775 775 775 775 776 776 777 778 779 780 781 781 782 783 783 784 784 785 785 785 785 786
817 818 819 821 823 823 824 824 824 824 824 824 823 822 822 821 820 820 818 817 815 814 812 811 810 808 807 806 806 805 804 802 801 799 797 796 794 793 792 791 789 788 787 786 784 783 782 781 780 779 777 777 776 775 774 775 776 775 775 774 773 773 773 772 772 772 771 772 772 772 773 775 776 777 777 778 779 780 781 781 782 782 783 783 783
816 816 817 819 820 821 821 822 822 822 822 821 820 820 820 819 818 817 815 814 813 811 809 808 806 805 804 803 802 801 800 798 796 795 793 792 791 789 788 787 786 785 783 782 781 780 779 778 777 776 774 773 773 772 771 771 771 771 771 771 771 770 770 770 770 770 769 769 768 769 769 770 771 772 773 774 775 776 777 778 779 779 780 780 780
815 815 816 817 818 819 820 820 820 819 819 819 819 818 817 816 815 814 812 811 810 808 806 805 803 801 800 799 798 797 796 794 792 791 790 789 788 786 786 784 783 782 781 779 778 777 776 775 775 774 773 772 771 769 769 769 769 769 769 769 769 768 769 769 769 769 768 767 766 767 767 767 767 768 768 769 771 772 773 774 775 776 777 778 778
814 814 815 815 816 817 818 818 818 818 817 817 816 815 814 813 812 810 809 808 806 804 803 801 800 798 797 795 794 793 792 790 789 788 787 786 785 784 783 782 781 779 778 777 776 774 773 773 772 772 771 770 769 768 767 767 766 766 765 765 766 766 766 766 765 765 765 765 764 764 765 765 766 765 765 765 766 767 768 769 771 772 773 774 775
812 812 813 814 814 815 815 815 816 815 815 814 813 811 810 809 808 807 806 804 803 801 800 798 797 795 793 792 791 790 789 788 787 785 784 784 783 782 781 780 779 778 776 775 774 773 772 771 770 769 768 767 766 766 765 764 763 763 763 763 763 763 762 762 761 761 761 762 762 762 762 761 762 763 762 762 762 762 763 764 766 768 769 771 771
810 811 811 812 812 812 813 813 813 812 812 811 810 809 807 806 805 804 803 801 800 798 797 795 794 792 790 789 788 787 786 785 784 783 783 782 781 780 779 778 776 775 774 773 772 771 770 770 769 767 766 765 764 764 763 762 761 762 762 762 761 761 760 761 760 758 758 758 758 758 758 758 758 758 759 759 760 760 760 760 762 763 765 766 767
809 809 810 810 810 810 810 810 810 809 809 808 807 806 805 804 802 801 799 798 797 795 793 792 791 789 787 787 786 784 784 783 782 781 780 779 778 777 776 775 774 773 772 771 770 770 769 769 767 765 764 763 762 761 761 759 759 759 759 758 758 758 758 759 758 757 756 755 755 755 755 754 754 754 754 755 756 757 757 757 757 758 760 762 763
807 808 808 808 808 808 807 807 806 806 805 804 804 803 801 800 799 798 797 796 795 793 793 793 792 789 786 784 784 783 782 781 781 780 778 777 776 775 774 773 772 771 770 770 770 769 768 767 765 763 762 761 760 759 759 758 757 756 756 755 755 755 755 756 755 754 753 752 751 751 751 750 750 751 751 751 751 752 753 753 753 754 755 757 758
806 806 806 806 806 805 805 805 804 803 802 801 801 800 799 798 797 797 796 794 793 792 791 791 791 788 784 783 782 781 781 780 780 779 778 777 776 775 774 773 772 771 770 769 769 768 767 765 763 762 761 760 759 758 757 756 755 754 753 753 753 752 752 751 751 750 749 749 748 747 747 747 747 747 747 747 747 747 747 748 749 750 751 752 754
804 804 804 804 803 803 803 802 801 800 800 799 799 798 797 797 797 797 795 793 791 790 789 787 786 785 783 782 782 781 780 779 779 778 778 777 776 774 774 773 771 770 769 768 767 766 765 763 762 761 760 758 757 756 755 754 753 752 751 750 750 749 748 747 746 745 744 744 744 743 743 743 743 743 743 744 744 744 744 744 745 746 747 748 749
Wind_Speed
20 23 22 19 17 16 14 13 13 13 12 12 11 11 11 10 9 9 8 7 6 6 5 4 4 4 5 6 6 7 6 6 7 7 7 6 6 7 8 8 8 9 10 11 11 12 13 13 14 13 10 9 9 8 7 7 7 7 7 7 7 7 9 10 9 10 11 12 13 13 12 13 14 13 15 16 17 17 18 17 16 16 16 16 15
19 21 20 19 17 16 15 14 14 13 13 12 12 12 12 10 10 10 10 9 7 7 6 5 4 5 6 6 6 6 6 5 6 6 6 6 5 6 7 7 7 8 8 10 11 12 12 13 13 13 11 10 9 8 8 7 7 7 8 8 8 8 9 10 11 11 12 13 13 13 12 13 13 13 14 16 16 17 17 17 16 16 16 16 15
20 19 18 18 17 16 15 15 14 14 14 13 13 13 12 11 11 11 11 9 8 7 6 6 5 5 6 6 6 6 5 5 5 5 5 5 5 6 6 6 7 7 8 9 10 11 12 13 13 13 11 9 9 8 8 7 7 7 8 8 9 9 9 10 11 11 13 13 14 13 13 12 13 13 14 15 16 16 16 17 17 16 16 16 15
21 18 18 17 17 16 16 15 15 15 15 14 13 13 12 11 11 11 10 9 8 7 6 6 5 5 6 6 6 6 5 4 3 3 3 4 4 5 6 7 7 7 8 9 10 10 11 12 13 13 11 9 9 9 9 8 7 7 8 8 8 9 10 10 11 12 13 13 13 13 12 12 12 13 14 15 16 15 15 16 16 16 16 16 14
19 17 17 17 16 16 16 16 16 16 15 14 13 12 11 11 11 10 9 8 8 7 5 5 5 4 5 5 6 5 4 4 3 3 3 4 4 5 6 7 8 8 7 8 9 9 10 11 12 12 11 9 8 9 9 9 8 8 8 8 9 10 10 11 11 12 13 13 12 12 12 12 12 13 14 15 16 15 16 16 15 17 17 16 13
18 17 17 17 17 16 16 16 16 16 15 14 13 12 10 10 10 9 8 7 6 5 5 4 3 3 3 4 5 4 4 4 4 4 4 4 5 5 6 7 8 8 8 8 8 9 10 10 11 11 10 9 8 8 9 9 8 8 8 8 9 10 11 11 12 13 13 12 12 12 12 12 12 12 13 15 15 15 16 17 16 17 18 16 14
18 17 16 16 16 16 16 16 16 15 15 14 13 11 10 10 9 8 7 6 5 5 4 3 2 2 2 2 3 3 3 3 3 4 4 5 5 5 6 7 8 8 9 8 6 8 9 9 11 11 9 8 7 7 8 9 8 8 7 8 10 11 12 12 12 13 13 12 12 12 12 12 12 13 14 14 14 15 17 17 16 17 18 17 16
18 16 16 16 16 16 16 15 15 15 14 14 12 11 9 9 8 7 6 6 5 4 4 4 3 2 1 1 2 2 1 2 3 3 4 4 5 5 5 7 7 8 9 9 6 6 7 8 10 10 8 6 7 7 8 9 9 8 8 9 10 11 12 12 12 12 13 13 12 12 13 13 13 15 15 15 15 15 17 17 16 17 19 19 16
18 16 15 15 15 15 15 14 15 14 13 13 12 10 9 9 8 7 6 5 5 4 4 4 3 2 2 1 1 1 1 1 2 3 4 5 5 5 6 7 7 7 8 9 7 5 6 7 9 10 8 6 6 6 7 9 10 9 9 10 10 11 11 12 11 11 12 12 12 13 13 12 14 15 16 16 16 16 17 17 17 17 19 20 18
17 15 15 14 14 15 14 14 14 14 13 13 12 10 9 9 8 8 6 5 5 5 5 5 4 3 3 2 1 1 1 2 3 4 5 6 6 6 6 6 7 6 7 9 7 5 5 6 7 9 8 5 5 6 7 8 9 9 9 10 10 11 11 11 11 10 11 12 12 13 13 12 14 15 15 16 17 17 17 17 17 18 19 20 19
15 14 14 13 14 15 14 14 14 13 13 12 11 10 10 9 8 8 6 6 5 5 5 5 4 3 2 2 1 2 1 2 3 5 6 7 7 7 6 6 6 6 7 7 6 5 5 5 5 6 7 5 5 6 6 7 7 8 9 9 9 9 10 10 10 10 11 11 12 13 13 13 14 15 15 16 17 17 17 16 16 17 17 17 17
14 13 13 13 14 14 14 14 14 13 13 12 12 11 10 9 9 8 7 6 6 6 6 5 4 3 2 2 2 2 1 1 4 6 7 7 8 7 7 7 6 6 6 6 6 5 4 5 4 4 6 7 5 5 6 7 7 8 9 8 7 7 8 8 9 10 11 12 12 13 14 14 15 15 16 16 17 18 17 16 16 16 17 16 16
14 13 12 12 13 13 13 14 14 14 13 13 12 11 11 10 9 9 8 6 6 6 6 5 4 4 3 3 3 3 2 2 5 6 7 7 8 7 7 7 6 5 5 6 5 4 4 4 4 3 5 6 5 5 6 6 7 9 10 9 7 7 7 7 7 8 10 11 12 13 14 14 15 15 16 16 17 17 17 16 16 17 16 16 17
14 13 12 12 12 13 13 14 14 14 14 13 13 12 11 10 10 9 8 7 6 6 6 6 5 5 5 4 3 3 3 3 5 7 7 7 8 8 8 7 6 5 4 4 4 3 3 3 3 3 3 3 3 4 5 6 7 9 10 10 9 7 7 6 7 8 9 9 11 13 13 13 14 14 15 15 16 16 16 17 17 17 17 17 18
14 13 12 12 13 12 12 14 14 14 14 13 13 13 12 11 10 9 8 8 8 7 7 7 5 5 5 4 4 4 3 5 7 7 7 7 9 9 8 7 6 4 3 3 3 3 3 3 3 3 2 1 2 3 4 5 6 8 9 10 10 8 6 5 7 9 8 9 11 12 13 13 13 14 14 14 15 15 15 16 16 16 16 16 16
15 14 14 14 14 13 13 13 13 13 14 14 13 13 12 12 10 9 9 9 8 7 7 7 6 5 5 4 4 4 4 6 8 8 8 8 9 8 8 7 5 4 4 3 3 3 4 4 4 4 3 3 5 4 4 5 6 7 8 9 10 10 7 6 6 6 6 9 9 8 11 12 12 13 13 13 14 15 15 15 13 12 13 14 13
16 16 15 15 15 14 13 12 12 12 13 13 13 13 13 12 12 10 10 9 8 7 7 7 6 6 5 4 5 5 5 6 8 9 9 9 9 8 8 7 5 4 3 4 4 4 5 5 5 6 5 5 7 8 7 7 7 7 8 9 9 10 9 9 8 6 8 12 10 8 8 10 11 13 12 12 14 15 14 14 13 11 11 12 12
16 16 16 16 15 14 13 12 11 11 12 13 13 12 12 13 13 11 10 10 9 8 7 6 6 5 5 5 5 6 6 7 9 10 10 10 9 8 7 7 5 4 4 5 5 5 6 7 7 7 6 6 9 11 9 8 8 8 8 8 9 10 10 10 10 9 12 14 12 10 10 9 10 12 11 11 12 12 12 13 13 12 11 11 12
16 16 16 16 16 15 14 13 11 10 11 12 12 12 12 13 13 12 11 10 10 9 8 6 5 5 5 5 6 7 8 8 9 10 10 10 9 8 7 6 5 5 5 5 5 5 7 8 9 8 7 7 10 13 11 9 9 9 9 9 9 10 10 11 12 13 14 14 13 12 11 10 10 11 10 10 10 9 9 11 12 12 11 11 12
18 16 15 16 18 17 15 13 12 10 10 12 13 12 12 13 13 12 11 11 10 9 7 7 6 6 6 6 6 7 8 8 9 10 10 9 9 8 8 7 5 5 5 5 7 7 6 7 9 9 9 8 10 11 11 11 12 11 10 10 10 10 11 12 14 14 13 13 13 13 11 10 11 10 9 9 9 8 8 10 10 11 11 12 12
20 16 15 16 17 17 15 13 13 11 9 11 13 13 13 14 13 12 12 11 10 9 8 8 8 7 7 8 8 8 8 8 9 10 10 9 9 9 9 8 6 6 6 7 8 8 7 7 7 8 11 11 10 10 11 12 13 13 13 12 12 13 14 15 15 13 12 12 13 14 13 11 11 9 8 8 8 7 9 9 10 10 11 12 12
18 15 14 14 15 15 14 13 13 11 10 10 12 13 13 14 13 12 12 11 10 10 9 9 8 8 8 9 9 8 9 9 9 10 10 9 9 10 10 9 8 8 8 9 9 9 8 8 8 9 12 12 11 11 12 12 13 15 15 16 15 16 16 16 15 13 11 11 13 14 13 13 11 9 9 8 8 8 9 9 10 10 12 12 11
16 14 14 13 14 14 14 14 13 12 10 10 11 11 12 13 13 12 12 11 10 10 10 9 9 9 9 9 9 9 9 9 9 9 10 9 9 11 11 11 11 11 11 11 11 10 10 9 9 11 13 13 13 13 13 13 14 16 16 16 16 16 16 16 15 13 11 10 11 12 13 13 12 10 9 9 9 9 9 9 10 10 11 12 11
15 14 13 13 13 14 14 15 14 12 10 10 11 11 12 13 13 13 12 11 10 10 10 10 9 10 10 10 9 9 9 9 9 10 10 11 11 12 12 12 12 13 13 13 13 12 12 11 11 13 15 15 14 15 15 16 17 17 17 16 16 16 15 15 14 12 10 9 10 11 12 13 12 11 10 10 10 11 10 9 10 10 11 11 11
16 14 14 14 14 14 14 15 15 12 11 12 12 12 13 13 12 12 11 11 11 11 11 10 10 10 10 10 10 10 9 9 9 9 10 11 12 13 14 14 14 14 16 17 16 15 16 17 17 17 18 17 17 17 18 18 18 17 16 16 15 16 15 14 14 12 10 10 10 11 12 12 12 11 11 11 12 11 10 9 9 10 10 10 11
16 14 14 13 13 14 15 15 15 13 12 13 13 13 13 13 12 12 12 12 12 11 11 11 11 10 10 10 10 10 10 9 9 9 9 10 11 12 13 14 14 15 17 19 19 20 21 21 21 20 20 19 19 19 18 17 17 18 18 16 15 15 14 13 12 12 10 10 10 11 11 10 10 11 11 11 12 11 9 10 10 10 10 10 10
15 15 14 14 14 15 15 15 14 14 14 14 13 13 13 13 12 12 13 12 12 12 12 12 12 10 9 10 10 10 10 9 9 9 8 8 9 10 10 11 12 13 15 17 18 18 18 18 18 19 20 20 20 20 18 17 16 16 16 14 13 13 13 12 12 12 11 10 10 11 10 8 9 11 11 11 11 10 9 10 10 9 10 10 9
16 16 16 15 14 14 14 14 13 13 14 14 13 13 13 13 13 13 13 12 12 12 12 11 11 10 10 10 10 11 11 10 9 8 8 8 9 10 10 10 10 11 12 13 14 14 14 15 16 17 17 17 17 17 16 14 14 13 13 12 12 12 12 12 12 13 12 11 11 10 9 8 8 11 11 11 11 10 9 9 9 9 9 9 8
17 17 15 14 13 13 13 13 13 12 13 13 13 13 12 13 13 13 12 12 12 12 12 11 11 10 10 11 11 12 12 11 10 10 12 14 14 13 13 13 12 13 14 15 16 17 16 16 17 17 16 15 15 15 14 14 13 13 13 13 12 11 11 12 12 12 12 11 11 10 10 9 9 9 11 11 11 10 8 8 8 8 8 8 8
16 15 14 13 12 12 12 13 12 12 12 12 12 13 13 15 15 14 13 13 13 15 15 15 15 15 15 15 15 15 16 16 15 15 16 16 15 15 15 16 16 17 18 19 20 19 17 17 18 18 17 16 16 16 16 15 14 13 12 12 12 12 11 11 11 11 11 11 11 10 10 10 9 9 11 12 10 9 8 7 7 7 8 8 8
15 14 13 13 12 12 11 11 12 12 12 12 12 12 12 13 15 16 16 15 15 16 17 18 19 19 20 20 20 19 19 18 17 16 16 15 15 16 16 17 18 19 19 19 18 17 17 18 19 18 18 17 17 17 16 15 14 14 13 13 12 12 12 11 11 11 11 11 11 11 10 10 9 9 10 11 10 9 9 8 8 8 7 7 7
14 13 13 12 11 11 10 10 10 11 12 12 12 11 11 11 12 13 14 14 15 15 16 17 18 17 17 18 19 19 18 17 16 16 16 17 17 17 18 18 19 19 20 20 19 17 18 19 20 19 19 19 18 18 17 16 15 14 13 13 13 12 12 12 11 12 12 11 11 11 11 10 10 9 9 9 10 10 9 8 8 8 7 7 7
13 12 12 11 11 11 10 9 9 10 11 12 12 12 12 11 10 10 11 11 12 13 14 15 16 16 16 17 19 19 19 18 17 17 17 17 18 18 19 20 21 21 22 22 20 18 19 21 21 20 20 19 19 18 17 17 16 15 15 15 14 14 13 12 12 12 12 12 12 12 11 11 11 10 9 9 10 9 8 8 8 8 8 7 7
13 11 11 11 11 11 11 11 10 10 10 11 12 12 12 11 10 10 10 10 11 13 14 15 16 17 18 18 18 17 17 17 17 17 17 17 18 19 21 22 23 24 25 24 22 20 20 21 21 20 19 19 19 18 18 17 17 16 16 15 15 15 14 12 12 13 13 13 13 13 13 12 11 11 10 10 10 9 8 8 8 8 8 7 7
12 10 10 10 11 11 11 11 11 11 11 12 12 12 11 11 11 11 11 11 11 12 13 14 15 15 16 17 16 15 16 16 17 17 17 17 18 19 21 23 23 22 24 25 26 24 22 21 21 20 19 19 19 19 18 18 17 17 17 16 15 15 14 13 13 14 13 13 13 13 13 12 12 12 11 11 10 9 8 8 8 8 8 8 7
13 10 10 11 11 11 11 11 11 12 12 12 12 12 11 11 11 11 12 12 13 13 13 13 12 12 15 17 17 16 16 16 16 17 17 17 18 19 20 20 19 18 19 20 22 22 21 21 21 20 20 19 19 19 19 18 17 17 17 16 16 15 15 14 14 14 14 14 13 13 13 13 13 12 12 12 11 10 10 9 8 8 8 7 7
13 11 10 11 11 11 10 11 11 12 12 12 12 11 11 12 12 12 13 13 13 13 13 13 12 12 13 14 16 17 18 18 18 18 19 19 20 21 22 21 19 19 19 19 19 19 20 20 20 20 19 20 19 19 19 18 17 17 16 16 16 16 16 16 15 14 14 14 14 14 14 14 14 13 13 13 12 11 10 9 8 8 8 8 8
13 12 10 10 10 10 11 11 11 12 12 12 12 12 12 13 13 13 13 13 13 14 14 13 13 13 13 13 14 16 16 17 18 19 20 20 20 22 23 22 20 19 20 20 20 20 21 21 21 20 20 20 19 19 18 18 18 17 16 16 16 16 17 16 15 15 16 16 15 15 15 15 15 14 14 14 13 12 11 10 9 8 8 8 9
12 12 12 11 10 10 11 11 12 13 13 13 13 13 13 13 13 13 13 13 14 14 14 14 14 14 14 14 15 14 14 15 16 16 16 16 17 18 19 19 18 18 19 19 19 19 20 20 20 20 20 20 19 19 19 18 18 17 17 16 16 16 16 16 16 16 17 17 17 16 16 16 16 15 15 14 14 13 12 12 11 9 8 8 9
11 12 14 14 13 11 10 11 11 12 13 13 13 13 13 13 13 13 13 14 14 14 14 15 15 15 15 15 16 16 16 16 16 17 17 16 16 17 17 17 17 18 19 19 19 19 19 18 18 17 18 18 18 18 18 18 19 17 17 17 17 17 16 17 17 17 17 17 17 17 17 16 16 16 16 15 15 14 13 13 12 11 10 9 9
11 10 12 15 15 12 11 12 12 12 12 12 12 12 13 13 13 14 14 14 15 15 15 16 16 16 16 17 19 20 19 17 17 18 19 18 18 18 18 18 18 18 19 19 19 19 18 18 17 16 16 18 19 19 19 21 21 20 18 17 18 18 18 18 19 19 18 18 18 18 18 17 17 17 17 16 16 15 14 14 13 12 12 11 10
11 10 11 13 14 14 13 12 12 12 12 13 13 13 13 13 14 14 15 15 16 16 16 17 17 18 18 19 20 22 21 19 18 19 19 18 18 18 18 18 18 19 19 20 20 19 19 18 17 17 16 17 18 17 17 18 19 18 16 16 17 18 18 19 19 20 20 19 19 19 18 18 18 18 18 17 16 16 16 15 15 14 13 12 11
11 11 11 11 13 14 13 12 12 12 12 13 13 13 14 14 15 15 16 16 16 17 17 18 19 19 19 19 20 21 21 19 18 18 18 18 18 18 18 18 18 18 18 19 19 19 18 18 17 18 18 18 17 17 16 16 14 14 14 16 17 18 18 18 19 20 20 20 20 20 20 19 19 19 19 18 17 17 17 16 16 15 15 13 12
11 11 12 11 12 12 12 12 12 12 12 13 13 14 15 15 16 17 17 17 17 17 18 19 19 19 19 19 19 19 18 18 18 18 18 18 18 18 18 18 17 17 17 17 17 17 17 17 17 18 18 18 17 17 17 15 13 14 15 16 17 17 17 16 18 20 20 20 19 19 19 19 19 20 20 19 19 19 18 18 17 17 16 15 14
11 11 12 12 12 12 12 12 12 13 13 13 14 15 16 16 17 17 17 17 18 18 19 19 19 20 20 20 19 18 18 18 18 18 18 18 17 17 17 17 17 16 16 16 16 15 15 15 15 16 17 17 15 15 15 16 18 19 18 17 17 17 17 17 17 17 18 18 18 19 20 21 21 21 20 20 20 20 20 19 19 18 18 17 16
11 11 11 11 12 12 12 13 13 14 14 15 15 15 16 16 16 16 17 18 19 19 19 20 20 19 19 18 18 17 17 17 17 17 16 16 16 16 17 17 16 16 16 16 15 14 14 14 14 15 16 17 16 14 14 15 17 18 18 18 18 18 19 20 19 17 17 18 18 19 21 22 23 23 22 21 20 21 22 21 20 20 19 19 18
9 10 11 11 11 12 13 13 14 14 15 15 16 16 16 16 17 17 18 18 19 19 19 19 18 18 17 16 16 16 16 15 15 15 14 14 15 16 17 17 17 17 17 17 16 15 14 13 14 15 17 18 17 16 16 17 16 15 15 17 18 18 19 20 19 18 17 17 18 18 20 21 21 23 25 24 23 22 22 22 22 22 21 21 20
9 10 10 11 11 12 13 14 14 15 16 16 16 16 16 17 17 17 18 18 19 19 19 18 17 16 15 14 14 14 14 14 15 14 13 14 16 17 18 18 18 18 19 20 19 18 16 14 14 15 17 17 17 17 18 17 17 15 14 14 15 17 18 19 19 17 16 16 16 17 18 19 20 22 25 27 28 27 25 24 23 23 22 22 21
10 10 10 11 12 12 13 13 14 14 14 14 15 15 16 17 17 17 16 17 17 17 19 22 21 18 14 13 13 14 14 15 16 14 14 15 18 19 20 21 21 20 20 20 19 18 17 16 15 14 14 15 16 16 16 16 16 16 16 14 14 14 16 18 20 19 18 17 17 16 16 17 20 22 24 26 28 29 28 26 25 24 23 23 23
11 11 11 11 12 12 12 12 13 13 13 14 15 15 16 16 15 13 13 16 18 19 21 24 24 19 13 12 14 15 16 17 17 15 14 15 15 15 16 16 16 16 16 16 16 15 15 15 14 14 13 14 14 14 14 13 13 14 14 15 15 15 15 16 18 19 19 18 18 18 17 17 18 20 23 25 25 26 26 26 26 25 24 24 24
11 11 11 11 11 11 11 12 12 13 13 13 14 14 14 14 14 13 15 18 19 19 20 20 18 14 12 13 14 15 15 15 15 14 14 14 13 13 14 14 14 15 15 15 15 15 15 15 15 15 14 15 15 14 12 12 12 12 11 12 13 13 13 14 15 16 17 17 18 20 21 20 19 20 22 23 23 24 24 25 25 25 25 25 25
Wind_Direction
160 162 159 152 153 156 155 153 156 159 158 155 150 144 144 149 150 145 139 134 129 127 130 133 131 117 104 99 92 84 78 73 71 71 69 70 71 64 53 43 38 38 31 26 23 18 14 12 11 11 7 8 10 7 14 12 0 7 9 356 1 9 357 343 332 328 329 332 330 327 335 339 334 335 337 334 335 336 335 333 333 333 330 327 326
158 157 154 153 154 153 151 154 159 159 155 150 144 141 143 145 144 137 132 131 129 127 130 133 129 114 104 101 96 90 82 71 65 65 62 58 55 54 49 38 32 32 28 24 22 16 13 12 11 10 7 8 13 9 8 8 360 3 4 355 357 6 360 348 337 330 328 330 329 327 334 336 332 336 339 336 336 335 333 334 335 333 331 327 324
155 152 150 152 153 151 152 157 161 158 151 146 142 142 142 142 140 134 129 128 126 123 124 126 121 112 105 101 96 90 82 73 68 63 57 49 41 38 36 28 24 23 21 20 18 13 11 11 10 10 7 5 11 10 8 8 359 0 3 357 355 1 359 351 342 334 330 330 330 329 334 336 333 336 339 337 337 336 334 335 335 333 333 331 325
155 151 149 152 153 153 156 161 161 157 151 147 145 144 144 143 139 133 129 125 122 121 123 124 122 116 111 104 96 88 79 71 65 58 51 37 26 22 22 18 13 12 13 13 12 9 9 9 8 8 5 3 8 9 11 12 5 3 3 359 2 2 358 353 346 341 337 334 336 336 336 337 337 337 341 341 340 340 339 337 335 336 338 334 328
155 152 152 154 155 157 159 162 162 159 154 152 151 150 151 149 143 139 135 129 126 128 131 130 125 119 114 105 96 89 80 69 52 42 39 24 14 11 13 11 8 6 6 6 7 7 8 7 8 7 2 2 8 7 7 9 9 9 4 359 1 358 353 351 347 344 342 338 341 343 340 340 340 343 349 346 342 344 346 342 340 343 342 337 331
154 155 157 157 158 159 160 162 162 161 159 158 158 160 161 159 153 147 143 140 144 147 146 142 130 122 118 108 100 92 82 70 52 36 28 23 16 10 9 9 5 4 5 3 2 4 6 7 8 7 2 1 5 3 3 5 8 10 4 357 354 350 351 351 347 346 345 341 343 346 345 344 343 347 353 349 344 347 349 345 347 350 346 341 338
154 157 160 159 160 162 162 164 163 163 163 162 162 167 170 167 163 157 154 160 169 167 162 166 165 149 132 117 106 94 80 62 46 33 25 21 14 10 9 6 3 3 4 4 3 1 3 7 9 7 5 5 2 356 360 3 3 9 9 357 351 349 349 348 348 349 346 343 347 348 345 346 347 348 352 351 349 351 349 345 348 350 347 343 341
154 158 160 160 163 164 164 165 164 163 163 162 167 173 171 169 170 166 168 180 188 191 193 195 194 183 169 153 121 97 75 46 27 14 8 7 7 10 6 359 1 2 359 2 6 359 357 7 12 11 10 11 6 359 1 359 357 6 13 2 352 349 348 346 349 351 347 345 350 349 345 349 355 353 350 352 354 353 350 346 344 346 345 341 339
155 158 160 160 162 163 162 163 162 160 160 163 170 176 172 172 177 177 182 192 198 208 215 216 217 208 206 203 151 84 347 65 42 359 346 343 346 356 357 352 358 359 355 358 0 354 355 6 12 14 17 22 16 10 10 6 2 5 7 1 353 349 347 345 346 350 349 347 348 350 348 351 356 354 349 350 352 350 348 345 342 345 345 340 338
156 158 158 159 159 159 159 160 159 159 161 166 172 177 176 177 182 185 192 199 205 211 212 219 225 215 218 228 201 284 334 63 41 346 338 333 327 335 345 349 353 351 348 351 350 350 357 2 8 12 17 21 20 20 18 12 9 3 356 354 349 345 343 342 344 350 351 348 348 350 349 349 351 349 346 346 346 345 345 343 341 343 344 341 338
156 157 155 155 156 157 159 160 159 162 166 169 174 178 180 183 187 190 196 202 209 212 210 217 229 232 243 261 273 297 336 30 357 329 332 333 325 322 329 340 345 341 341 346 347 350 354 357 5 14 20 21 21 24 20 11 8 2 353 349 348 350 349 345 347 350 349 348 349 349 347 347 347 344 343 344 342 340 341 340 339 340 340 339 333
153 153 152 153 155 159 162 162 163 167 169 172 176 179 184 188 190 194 199 204 209 212 216 221 225 236 248 256 282 297 319 351 326 317 320 325 324 317 316 324 333 338 342 343 345 349 347 350 358 16 27 29 27 23 19 13 10 5 359 354 354 359 359 352 349 348 348 348 346 345 345 342 340 340 342 343 338 335 336 336 337 335 333 331 325
151 149 151 154 157 162 166 166 169 172 173 178 180 183 188 190 193 199 201 207 213 215 222 226 225 239 251 250 269 286 296 321 324 322 317 318 320 314 308 310 315 326 337 336 339 346 335 335 347 6 21 25 23 16 13 13 12 10 8 7 3 359 357 354 350 346 347 346 340 339 340 335 333 335 338 337 334 332 333 333 333 330 326 324 321
153 149 151 154 158 165 169 172 175 176 179 184 186 188 193 194 198 202 203 212 222 224 230 233 234 247 252 251 265 276 290 318 328 327 321 315 316 311 303 303 305 311 326 324 326 332 316 310 328 351 5 13 12 6 0 0 8 11 8 8 10 3 353 353 351 343 341 341 337 337 337 335 333 332 333 335 335 332 330 329 327 324 321 317 314
157 154 154 156 161 169 173 175 178 181 185 190 192 195 197 200 204 205 207 217 222 226 238 245 248 253 250 257 274 281 299 324 333 334 322 310 311 308 300 299 300 302 310 311 305 300 289 290 297 307 316 310 325 346 346 338 349 0 1 2 4 1 356 353 348 343 338 335 336 339 339 338 338 334 332 335 334 331 328 324 319 317 317 314 312
164 163 163 164 166 171 174 175 181 187 191 194 197 199 200 205 209 209 216 225 224 229 245 253 256 257 253 261 277 287 302 317 329 336 325 308 303 302 299 295 289 288 291 290 284 271 265 275 275 272 271 260 268 293 316 316 322 339 351 356 356 354 357 347 332 339 346 330 321 329 338 339 337 334 333 334 333 331 328 325 323 323 322 317 317
170 171 172 172 173 174 174 176 182 188 192 195 199 201 204 209 212 213 220 229 232 239 249 251 250 254 257 264 280 295 301 307 318 326 323 311 301 297 298 295 282 278 280 273 272 263 255 260 259 262 272 269 264 275 294 302 303 315 335 348 346 345 356 354 334 337 344 328 310 307 329 341 337 329 328 330 331 332 330 331 335 334 328 322 320
173 175 177 178 179 181 181 182 185 187 191 195 199 204 208 210 213 215 221 230 237 246 253 252 248 252 259 268 281 294 299 303 311 315 315 308 298 292 294 291 280 276 273 264 265 262 258 264 267 265 265 265 267 273 283 289 288 297 317 331 332 334 351 355 343 336 335 329 324 320 323 335 335 326 324 326 325 328 331 333 335 335 329 322 319
176 177 180 181 184 188 188 189 192 193 195 199 203 207 209 210 213 215 222 232 239 243 248 249 248 250 256 267 278 288 296 303 306 308 308 302 292 285 285 284 277 274 269 261 264 265 262 268 275 276 271 265 262 266 272 275 277 287 298 305 316 331 343 341 330 328 329 327 330 330 324 326 328 321 320 324 321 324 329 329 332 335 330 319 315
181 179 180 184 189 192 192 193 197 200 202 205 209 210 209 212 215 217 223 233 239 241 245 250 256 256 259 267 274 282 294 303 304 304 303 294 282 277 277 276 271 267 266 265 269 270 269 268 271 277 288 287 274 268 268 266 267 277 285 288 298 313 322 320 315 319 324 319 320 327 331 328 321 315 318 324 323 326 331 330 333 336 330 321 313
188 181 182 188 192 194 195 196 201 207 209 209 213 214 212 213 218 221 226 235 242 248 250 253 259 263 266 272 277 282 291 299 304 306 303 289 274 269 270 269 267 264 262 266 272 277 282 284 281 281 289 294 289 280 274 268 264 266 270 274 279 287 296 302 305 312 318 318 320 329 337 333 321 314 319 323 326 332 333 330 332 332 328 324 318
189 183 184 187 190 192 195 197 202 210 217 214 214 215 214 216 220 224 228 235 243 250 252 254 261 268 271 273 277 283 290 295 299 304 302 288 271 265 264 264 265 268 268 271 278 282 283 287 287 281 284 290 291 285 281 277 269 264 265 270 276 282 288 292 296 305 314 323 327 330 334 335 328 320 319 319 324 334 333 327 327 326 322 323 325
188 186 185 186 188 192 195 198 203 211 215 211 211 212 212 215 219 222 229 237 244 250 253 257 264 271 273 274 275 280 288 291 294 297 297 288 274 268 267 264 261 262 264 268 274 277 279 285 283 279 283 290 289 286 284 279 272 270 273 277 279 282 285 285 287 295 307 318 322 322 328 337 336 325 319 320 322 327 325 320 320 319 316 319 323
187 187 185 187 190 192 195 199 205 212 211 206 207 210 210 211 215 222 230 238 245 251 255 260 266 269 272 274 275 279 286 290 293 293 291 287 276 268 268 267 263 261 262 265 272 275 277 280 280 280 285 289 288 286 284 280 276 274 274 277 280 281 279 277 279 288 298 301 305 314 327 337 338 329 322 320 318 315 313 313 317 317 314 314 315
190 189 188 191 193 195 198 202 208 212 211 206 208 213 213 212 217 225 232 239 246 251 257 263 265 266 269 272 276 282 286 288 290 290 290 289 282 273 269 267 265 263 261 262 266 269 272 277 281 283 285 286 286 285 284 283 284 283 278 275 273 270 267 269 275 283 288 289 298 313 322 329 336 334 327 320 315 309 308 311 315 317 316 313 310
190 191 191 192 194 196 200 205 210 212 211 211 213 217 218 219 221 227 234 239 245 251 257 262 263 263 265 270 276 280 283 285 286 286 285 284 281 278 274 272 271 271 268 267 269 271 274 278 282 284 284 283 282 280 277 277 280 284 283 277 265 257 257 263 270 275 280 284 293 306 313 321 329 329 323 320 316 311 310 313 313 316 322 323 316
188 191 193 194 196 199 202 206 210 212 212 215 217 218 220 223 225 229 234 240 244 250 255 259 262 265 266 271 277 280 280 281 284 283 279 276 278 278 276 274 275 273 270 270 271 272 275 279 282 285 285 284 281 277 273 271 270 271 272 268 257 250 255 261 264 267 271 274 282 294 302 308 315 318 319 321 320 313 309 312 314 318 325 326 317
189 193 196 198 199 201 202 204 208 211 211 214 219 220 220 224 227 230 234 239 245 249 252 256 261 266 270 274 280 282 282 284 287 285 282 283 288 288 281 277 276 273 271 271 271 273 276 276 276 277 276 275 275 271 268 268 267 262 262 264 261 256 255 257 258 259 262 264 270 279 283 281 292 309 318 321 320 315 309 308 312 318 322 321 316
190 194 195 197 197 196 198 200 203 208 210 212 219 225 225 228 233 237 239 242 244 248 254 260 265 271 277 280 283 284 285 287 289 286 285 286 286 284 279 275 274 274 273 272 274 278 281 276 273 272 269 268 269 268 268 273 273 267 264 266 268 266 260 256 254 253 253 255 259 264 268 267 277 299 311 317 320 315 304 300 304 310 315 314 313
189 191 189 190 190 191 197 199 200 205 210 212 218 227 232 237 242 244 243 243 246 251 257 262 266 270 275 277 278 278 278 282 286 286 284 283 282 279 276 275 274 275 275 275 276 277 275 272 272 273 272 272 274 274 276 279 281 278 274 267 264 265 264 261 258 256 253 251 253 258 262 264 268 283 299 313 320 312 299 294 290 291 301 306 309
186 186 187 190 189 190 197 200 200 206 212 215 218 225 232 240 245 245 244 245 249 254 260 265 267 268 269 270 272 274 276 281 286 287 284 281 280 279 278 276 276 277 279 280 277 272 269 270 273 275 275 276 278 278 278 277 278 281 280 273 267 264 260 258 258 257 254 251 251 254 258 260 261 267 285 304 314 308 299 294 285 280 290 302 307
183 185 189 191 189 195 203 204 203 207 210 215 222 227 232 237 240 243 247 252 256 258 261 262 262 263 265 268 271 275 279 282 284 284 282 280 279 279 278 278 277 277 278 278 273 268 267 271 274 276 277 278 279 279 278 276 276 278 276 274 273 268 262 258 254 250 250 251 251 252 253 255 257 259 267 287 300 300 294 292 290 285 285 293 301
184 187 191 190 190 200 209 208 207 210 211 215 221 227 232 236 238 240 244 248 254 258 259 259 260 263 266 269 271 274 277 280 281 282 282 280 278 277 276 275 274 274 274 273 268 265 267 270 272 274 276 276 277 278 277 275 275 274 272 273 273 270 268 262 248 239 242 246 248 250 251 249 252 253 253 265 283 290 287 286 289 284 277 283 294
190 190 191 192 194 202 210 210 210 212 215 219 223 228 233 239 245 249 250 249 252 256 258 259 263 266 270 274 275 275 277 279 281 281 281 279 276 274 273 273 272 271 270 267 262 260 265 269 270 271 272 273 274 275 275 274 273 271 270 270 270 270 268 258 239 234 241 246 244 244 247 246 246 248 249 255 268 277 278 278 282 280 276 280 288
196 194 190 194 200 206 210 212 212 213 217 222 226 231 237 243 248 255 261 264 264 265 265 265 266 267 272 277 280 280 280 281 282 283 284 280 274 271 272 272 270 268 267 263 258 256 260 264 268 269 270 270 272 273 273 273 273 271 269 267 266 267 263 252 239 236 241 245 243 241 241 242 243 245 247 250 254 261 267 273 278 279 276 275 276
199 198 194 198 207 211 212 212 213 215 219 225 230 236 242 249 254 260 265 268 270 273 276 277 276 273 275 281 287 288 287 285 284 284 283 280 274 270 267 265 263 264 266 262 256 252 253 257 262 266 268 269 270 271 271 270 269 268 267 264 264 264 261 254 249 244 239 240 244 242 240 239 240 241 244 246 247 249 255 262 269 273 274 274 277
202 204 200 202 209 214 215 214 215 216 221 228 234 240 246 251 258 265 270 273 275 276 277 280 282 280 278 282 288 291 291 289 287 285 282 278 273 267 262 259 259 263 268 268 265 262 260 259 260 263 265 267 269 269 268 266 263 261 259 256 255 257 256 253 251 245 237 236 241 242 239 238 238 238 240 244 245 245 246 249 254 260 261 259 266
204 208 208 205 207 212 215 215 215 218 224 229 235 242 250 257 261 266 270 272 274 275 277 280 282 283 284 286 287 287 283 279 278 278 277 273 270 268 265 260 256 258 263 267 268 268 267 265 265 265 265 267 268 268 267 266 263 259 255 250 247 247 249 248 243 237 233 236 242 242 239 237 238 237 236 240 243 243 243 245 248 252 251 244 245
205 209 210 207 208 216 220 218 216 219 223 230 236 243 251 257 261 263 266 269 270 274 277 280 282 284 287 291 294 292 284 275 274 277 276 272 268 266 262 256 253 256 261 264 266 267 266 267 267 267 265 265 265 265 265 264 262 258 253 250 248 245 243 240 236 232 231 234 240 242 239 237 238 237 235 237 240 241 239 239 240 243 248 247 243
204 206 208 210 214 222 226 224 222 222 225 232 241 247 251 255 260 263 268 273 275 278 280 282 284 287 289 290 292 294 291 287 285 285 283 278 272 267 262 259 258 259 260 262 264 265 266 266 266 267 267 265 262 263 266 267 266 259 250 246 247 247 243 240 238 236 235 234 236 239 239 237 237 237 236 235 237 238 239 238 236 236 239 244 248
205 203 203 207 214 220 224 225 225 227 232 238 245 250 253 257 263 268 273 276 278 281 283 283 285 288 288 287 288 289 288 285 283 282 280 277 274 270 268 267 267 265 265 266 266 265 265 263 261 262 264 262 260 264 268 268 265 261 254 249 247 247 245 244 242 241 240 238 237 239 239 236 234 234 235 235 234 235 237 236 234 233 233 234 237
206 203 199 201 208 214 220 224 226 230 236 241 246 251 257 263 268 272 275 277 279 282 285 286 287 289 289 286 285 285 283 280 278 277 276 275 274 272 269 268 267 266 266 267 268 269 267 263 257 256 259 258 256 255 256 255 256 257 257 255 251 249 250 251 249 245 241 239 238 237 236 234 233 232 233 233 232 232 234 234 232 231 232 231 228
206 206 203 202 206 212 220 226 228 232 237 242 248 255 262 268 271 272 275 278 281 283 284 285 287 289 290 288 286 283 279 275 273 273 271 271 272 273 272 272 272 272 271 271 271 272 270 264 260 262 266 265 260 252 247 247 250 257 262 262 258 253 254 257 259 255 247 240 237 236 234 231 229 229 229 230 230 230 231 233 231 229 230 231 229
207 208 209 209 211 215 222 228 232 238 244 250 256 261 264 267 271 274 277 279 281 281 283 286 289 291 292 291 288 283 279 276 277 278 278 277 277 276 277 278 279 279 278 277 275 274 270 265 266 272 276 274 267 260 257 257 258 260 264 267 265 261 257 257 261 263 258 248 241 241 240 236 232 229 227 226 227 228 230 231 229 226 226 229 228
209 209 210 213 216 219 224 229 235 242 249 254 257 261 263 265 268 272 276 280 282 283 285 288 290 291 291 290 289 286 284 284 285 284 283 282 282 282 283 285 285 284 282 281 279 277 273 270 272 278 283 282 275 267 267 272 270 263 257 258 262 263 258 252 253 261 265 260 251 246 244 243 242 238 233 227 223 224 227 230 229 225 224 226 227
211 211 212 215 217 220 225 231 237 243 249 254 258 262 265 268 271 275 277 280 283 285 287 289 290 290 289 289 288 287 286 286 286 286 287 290 292 293 293 294 293 291 289 288 286 284 281 281 281 280 282 286 287 281 279 283 283 274 263 259 259 257 252 249 250 254 259 262 259 253 247 244 244 242 240 237 230 225 225 228 229 226 223 223 224
213 215 218 222 223 227 232 238 243 248 252 257 261 266 270 273 275 278 280 282 283 283 282 282 284 285 286 286 287 287 288 288 289 292 296 299 301 303 304 304 303 301 299 297 294 292 290 290 289 287 287 291 293 290 288 291 293 287 278 272 268 262 258 260 262 259 255 256 260 260 255 251 246 241 239 240 238 234 229 228 227 227 225 222 222
219 221 224 227 230 235 238 241 245 249 253 257 261 264 269 274 277 280 283 285 285 284 284 285 283 282 283 287 289 290 292 294 296 299 303 301 300 303 307 307 304 303 304 304 304 303 301 298 295 294 296 297 296 294 293 292 290 287 284 282 279 277 274 271 270 268 264 262 261 261 259 257 253 246 240 236 235 236 236 234 229 227 226 223 220
227 229 231 232 235 240 244 246 249 252 254 258 263 267 272 277 281 284 288 292 294 299 305 305 300 291 288 294 298 298 300 302 304 308 313 311 306 306 308 306 305 306 309 309 310 313 315 314 310 305 303 302 300 298 296 294 292 293 295 297 300 301 294 283 276 274 271 265 261 259 258 257 256 252 246 238 233 232 235 236 232 227 223 221 218
231 233 237 238 239 242 246 249 254 258 263 269 275 279 282 286 290 294 296 297 300 303 303 299 295 292 297 307 310 309 312 314 315 317 320 319 316 315 314 312 312 316 318 319 319 321 325 327 326 321 316 311 306 303 300 299 300 301 303 307 311 313 308 300 292 284 276 270 265 261 258 256 255 253 249 245 239 233 230 228 227 223 220 218 216
232 234 238 241 242 246 250 254 261 269 275 280 283 284 285 292 300 303 296 291 291 292 290 289 292 302 316 324 324 322 323 326 327 326 324 322 322 324 324 322 322 323 324 324 326 326 327 328 328 326 323 319 316 316 318 321 323 320 315 312 313 310 303 299 296 289 281 276 271 265 261 257 253 249 247 246 244 241 235 227 221 219 219 218 216